Dauntless Aviation
Greetings, Guest! To participate, [sign up for a free account] or [log in]
Airports North America United States Texas
63TE

FLYING S RANCH AIRPORT

KENNARD, TX, USA

Airport Info

Location

Latitude / Longitude: 31°21'12"N / 95°12'20"W
  31°21.2109'N / 95°12.3463'W
  31.3535 / -95.2058
Elevation: 370 ft. (estimated)
Variation: 06E (1985)
From city: 01 miles SW of KENNARD, TX

Operations

Facility use: Private
Sectional chart: HOUSTON
Control tower: no
Boundary ARTCC: HOUSTON
FSS: MONTGOMERY COUNTY [1-800-WX-BRIEF]
Segmented circle: no

Communications

Nearby radio navigation aids

VOR radial/distance VOR name Freq Var
LFK 295oT/27.6 LUFKIN VORTAC 112.10 05E
 
NDB name Hdg/Dist Freq Var ID
NADOS 252oT/26.1 253 05E OC
CHEROKEE COUNTY 179oT/31.0 263 05E JSO
NACOGDOCHES 235oT/31.1 391 05E GXD
PALESTINE 135oT/36.0 375 04E PSN

Services

Runway Information

Runway 14/32

Dimensions: 2000 x 100 ft.
Surface: NATURAL SOIL,NO SPECIAL SURFACE TREATMENT
 
Runway 14
Runway 32
 

Additional Remarks

Instrument Procedures

No published instrument procedures available
Topographic chart at:
Satellite photo at:
Airport distance calculator
From:
Weather Reports

METAR

KDKR
10.5nm SW
KDKR 190115Z AUTO 02004KT OVC005 13/13 A3014 RMK AO2
KLFK
24.5nm E
KLFK 190053Z AUTO 07003KT 8SM OVC021 14/11 A3011 RMK AO2 SLP196 T01390106
KOCH
28.1nm NE
KOCH 190115Z AUTO 06005KT 10SM OVC022 12/09 A3013 RMK AO1
KJSO
30.8nm NW
KJSO 190115Z AUTO 04005KT 2 1/2SM BR OVC006 10/10 A3014 RMK AO2 T01050101
KPSN
36.1nm NW
KPSN 190115Z AUTO 03003KT 4SM BR OVC004 10/10 A3014 RMK AO2 T01080103

TAF

KLFK
24.5nm E
KLFK 182339Z 1900/1924 07004KT 6SM BR BKN009 OVC019 TEMPO 1900/1903 SCT009 OVC019 FM190600 05005KT 6SM BR VCSH OVC007 TEMPO 1906/1908 4SM -SHRA BR OVC004 FM190800 04005KT 3SM SHRA BR OVC004 TEMPO 1909/1913 1 1/2SM TSRA BR BKN004 OVC010CB FM192000 04006KT 5SM -RA BR OVC006
Safelog

 

Dauntless Aviation

© 2007-2014 Dauntless Aviation, all rights reserved
Information provided via PilotNav comes from a variety of official and unofficial data sources. As errors are possible, do not use PilotNav for primary flight planning purposes. Verify any information that you receive via PilotNav with current and canonical charts and other official documents. The material in this database is subject to database copyrights held by Dauntless Aviation and may not be copied without the express permission of Dauntless Aviation - licenses for use of part of all of this data are available for purchase; enquire via the Dauntless Aviation helpdesk. A number of mechanisms and markers exist in the database to protect against and identify infringement / copyright. Automated queries against this website are stictly prohibited, and all activity is logged and analyzed.